When you browse on this site, cookies collect data to enhance your experience and personalize the content and advertising you see.
Visit our Privacy Policy to learn more. By continuing to use the site, you agree to this use of cookies and data.
  • In Lithuania
  • List of Countries
  • For 7 days
  • Water Temperature
  • Weather Map
  • Weather Widgets
  • user-avatar
    Login

    Hourly Weather Vilnius

    Today, 17 September, Tuesday

    Time Temperature Precipitation Wind Pressure Humidity
    00:00 +7°C° 0 mm 4 mps 741 mmHg 87%
    01:00 +7°C° 0 mm 4 mps 741 mmHg 88%
    02:00 +7°C° 0 mm 4 mps 741 mmHg 88%
    03:00 +6°C° 0 mm 4 mps 741 mmHg 89%
    04:00 +6°C° 0 mm 4 mps 741 mmHg 90%
    05:00 +6°C° 0 mm 4 mps 741 mmHg 91%
    06:00 +7°C° 0 mm 5 mps 741 mmHg 86%
    07:00 +8°C° 0 mm 5 mps 741 mmHg 81%
    08:00 +9°C° 0 mm 5 mps 741 mmHg 75%
    09:00 +10°C° 0 mm 6 mps 741 mmHg 69%
    10:00 +11°C° 0 mm 6 mps 741 mmHg 64%
    11:00 +13°C° 0 mm 6 mps 741 mmHg 58%
    12:00 +13°C° 0.1 mm 6 mps 740 mmHg 58%
    13:00 +14°C° 0.1 mm 6 mps 740 mmHg 58%
    14:00 +14°C° 0.1 mm 6 mps 739 mmHg 58%
    15:00 +13°C° 0.6 mm 5 mps 739 mmHg 68%
    16:00 +12°C° 0.6 mm 4 mps 738 mmHg 77%
    17:00 +10°C° 0.6 mm 3 mps 737 mmHg 86%
    18:00 +10°C° 1.2 mm 3 mps 737 mmHg 88%
    19:00 +8°C° 1.2 mm 4 mps 737 mmHg 90%
    20:00 +7°C° 1.2 mm 4 mps 737 mmHg 93%
    21:00 +7°C° 0.1 mm 4 mps 736 mmHg 93%
    22:00 +7°C° 0.1 mm 3 mps 736 mmHg 93%
    23:00 +5°C° 0.1 mm 3 mps 735 mmHg 94%

    Tomorrow, 18 September, Wednesday

    Time Temperature Precipitation Wind Pressure Humidity
    00:00 +5°C° 0.1 mm 3 mps 735 mmHg 95%
    01:00 +4°C° 0.1 mm 3 mps 735 mmHg 95%
    02:00 +4°C° 0.1 mm 3 mps 735 mmHg 96%
    03:00 +4°C° 0 mm 3 mps 735 mmHg 96%
    04:00 +4°C° 0 mm 4 mps 735 mmHg 96%
    05:00 +4°C° 0 mm 4 mps 735 mmHg 96%
    06:00 +5°C° 0.6 mm 4 mps 736 mmHg 95%
    07:00 +5°C° 0.6 mm 5 mps 736 mmHg 94%
    08:00 +5°C° 0.6 mm 5 mps 737 mmHg 93%
    09:00 +6°C° 0.2 mm 5 mps 737 mmHg 90%
    10:00 +7°C° 0.2 mm 6 mps 738 mmHg 87%
    11:00 +8°C° 0.2 mm 6 mps 739 mmHg 83%
    12:00 +9°C° 0.1 mm 6 mps 739 mmHg 75%
    13:00 +10°C° 0.1 mm 6 mps 740 mmHg 67%
    14:00 +13°C° 0.1 mm 6 mps 741 mmHg 60%
    15:00 +12°C° 0.1 mm 5 mps 741 mmHg 64%
    16:00 +12°C° 0.1 mm 5 mps 742 mmHg 68%
    17:00 +10°C° 0.1 mm 5 mps 742 mmHg 72%
    18:00 +10°C° 0.1 mm 4 mps 743 mmHg 77%
    19:00 +8°C° 0.1 mm 4 mps 743 mmHg 82%
    20:00 +8°C° 0.1 mm 4 mps 743 mmHg 87%
    21:00 +7°C° 0.1 mm 4 mps 744 mmHg 89%
    22:00 +7°C° 0.1 mm 4 mps 745 mmHg 90%
    23:00 +7°C° 0.1 mm 4 mps 745 mmHg 92%

    Day after tomorrow, 19 September, Thursday

    Time Temperature Precipitation Wind Pressure Humidity
    00:00 +6°C° 0 mm 4 mps 745 mmHg 93%
    01:00 +6°C° 0 mm 4 mps 746 mmHg 94%
    02:00 +6°C° 0 mm 4 mps 746 mmHg 96%
    03:00 +6°C° 0 mm 4 mps 746 mmHg 95%
    04:00 +7°C° 0 mm 3 mps 747 mmHg 95%
    05:00 +7°C° 0 mm 3 mps 747 mmHg 95%
    06:00 +7°C° 0 mm 3 mps 747 mmHg 93%
    07:00 +7°C° 0 mm 3 mps 748 mmHg 91%
    08:00 +7°C° 0 mm 3 mps 748 mmHg 90%
    09:00 +8°C° 0 mm 3 mps 748 mmHg 82%
    10:00 +10°C° 0 mm 3 mps 749 mmHg 74%
    11:00 +12°C° 0 mm 2 mps 749 mmHg 66%
    12:00 +11°C° 0.2 mm 3 mps 749 mmHg 66%
    13:00 +12°C° 0.2 mm 3 mps 749 mmHg 65%
    14:00 +12°C° 0.2 mm 4 mps 749 mmHg 65%
    15:00 +12°C° 0.5 mm 4 mps 749 mmHg 69%
    16:00 +11°C° 0.5 mm 4 mps 749 mmHg 74%
    17:00 +10°C° 0.5 mm 4 mps 749 mmHg 79%
    18:00 +8°C° 0.1 mm 4 mps 749 mmHg 82%
    19:00 +7°C° 0.1 mm 4 mps 749 mmHg 85%
    20:00 +6°C° 0.1 mm 4 mps 749 mmHg 88%
    21:00 +5°C° 0.5 mm 5 mps 749 mmHg 89%
    22:00 +5°C° 0.5 mm 5 mps 750 mmHg 91%
    23:00 +5°C° 0.5 mm 5 mps 750 mmHg 92%

    20 September, Friday

    Time Temperature Precipitation Wind Pressure Humidity
    00:00 +5°C° 0.3 mm 5 mps 750 mmHg 91%
    01:00 +3°C° 0.3 mm 5 mps 750 mmHg 91%
    02:00 +3°C° 0.3 mm 5 mps 750 mmHg 90%
    03:00 +3°C° 0 mm 4 mps 750 mmHg 90%
    04:00 +3°C° 0 mm 4 mps 750 mmHg 91%
    05:00 +1°C° 0 mm 4 mps 750 mmHg 91%
    06:00 +3°C° 0 mm 4 mps 750 mmHg 88%
    07:00 +2°C° 0 mm 5 mps 751 mmHg 84%
    08:00 +3°C° 0 mm 5 mps 751 mmHg 81%
    09:00 +5°C° 0 mm 5 mps 751 mmHg 80%
    10:00 +6°C° 0 mm 5 mps 751 mmHg 78%
    11:00 +7°C° 0 mm 5 mps 751 mmHg 76%
    12:00 +8°C° 0.2 mm 5 mps 752 mmHg 73%
    13:00 +9°C° 0.2 mm 5 mps 752 mmHg 69%
    14:00 +9°C° 0.2 mm 5 mps 752 mmHg 66%
    15:00 +9°C° 0.2 mm 5 mps 752 mmHg 68%
    16:00 +8°C° 0.2 mm 4 mps 752 mmHg 70%
    17:00 +8°C° 0.2 mm 4 mps 753 mmHg 73%
    18:00 +7°C° 0 mm 4 mps 753 mmHg 77%
    19:00 +5°C° 0 mm 3 mps 754 mmHg 80%
    20:00 +4°C° 0 mm 3 mps 754 mmHg 84%
    21:00 +3°C° 0 mm 3 mps 755 mmHg 85%
    22:00 +4°C° 0 mm 2 mps 755 mmHg 85%
    23:00 +3°C° 0 mm 2 mps 755 mmHg 86%

    21 September, Saturday

    Time Temperature Precipitation Wind Pressure Humidity
    00:00 +2°C° 0 mm 2 mps 756 mmHg 86%
    01:00 +2°C° 0 mm 2 mps 756 mmHg 87%
    02:00 +2°C° 0 mm 2 mps 756 mmHg 87%
    03:00 +2°C° 0 mm 2 mps 756 mmHg 87%
    04:00 +2°C° 0 mm 2 mps 756 mmHg 87%
    05:00 +2°C° 0 mm 2 mps 757 mmHg 87%
    06:00 +3°C° 0 mm 2 mps 756 mmHg 84%
    07:00 +4°C° 0 mm 2 mps 756 mmHg 80%
    08:00 +4°C° 0 mm 3 mps 756 mmHg 76%
    09:00 +5°C° 0.1 mm 3 mps 756 mmHg 74%
    10:00 +7°C° 0.1 mm 3 mps 756 mmHg 73%
    11:00 +8°C° 0.1 mm 3 mps 756 mmHg 71%
    12:00 +7°C° 0.5 mm 4 mps 756 mmHg 76%
    13:00 +7°C° 0.5 mm 4 mps 755 mmHg 82%
    14:00 +6°C° 0.5 mm 4 mps 755 mmHg 87%
    15:00 +7°C° 0 mm 4 mps 754 mmHg 87%
    16:00 +8°C° 0.1 mm 4 mps 754 mmHg 87%
    17:00 +8°C° 0 mm 4 mps 754 mmHg 87%
    18:00 +10°C° 0 mm 4 mps 754 mmHg 89%
    19:00 +10°C° 0 mm 4 mps 754 mmHg 91%
    20:00 +11°C° 0 mm 4 mps 754 mmHg 94%
    21:00 +10°C° 0 mm 4 mps 754 mmHg 95%
    22:00 +10°C° 0 mm 4 mps 754 mmHg 96%
    23:00 +10°C° 0 mm 4 mps 754 mmHg 97%

    22 September, Sunday

    Time Temperature Precipitation Wind Pressure Humidity
    00:00 +10°C° 0 mm 4 mps 754 mmHg 97%
    01:00 +10°C° 0 mm 4 mps 754 mmHg 97%
    02:00 +8°C° 0 mm 4 mps 754 mmHg 97%
    03:00 +10°C° 0 mm 4 mps 754 mmHg 97%
    04:00 +10°C° 0 mm 4 mps 754 mmHg 97%
    05:00 +10°C° 0 mm 4 mps 754 mmHg 97%
    06:00 +10°C° 0 mm 4 mps 754 mmHg 96%
    07:00 +10°C° 0 mm 5 mps 754 mmHg 95%
    08:00 +10°C° 0 mm 5 mps 754 mmHg 95%
    09:00 +12°C° 0 mm 5 mps 754 mmHg 93%
    10:00 +13°C° 0 mm 5 mps 754 mmHg 91%
    11:00 +13°C° 0 mm 5 mps 754 mmHg 89%
    12:00 +15°C° 0 mm 5 mps 754 mmHg 84%
    13:00 +16°C° 0 mm 5 mps 754 mmHg 79%
    14:00 +17°C° 0 mm 5 mps 753 mmHg 75%
    15:00 +18°C° 0 mm 4 mps 753 mmHg 75%
    16:00 +18°C° 0 mm 4 mps 753 mmHg 76%
    17:00 +18°C° 0 mm 3 mps 753 mmHg 77%
    18:00 +17°C° 0 mm 2 mps 754 mmHg 82%
    19:00 +15°C° 0 mm 2 mps 754 mmHg 87%
    20:00 +13°C° 0 mm 1 mps 754 mmHg 92%
    21:00 +13°C° 0 mm 1 mps 754 mmHg 93%
    22:00 +13°C° 0 mm 1 mps 754 mmHg 93%
    23:00 +12°C° 0 mm 1 mps 754 mmHg 93%
    Show more